Overview Statistics Trail Chart Weather Telemetry Raw packets
 

This is the latest recevied weather packets stored in our database for station/object N7WSS. If no packets are shown the sender has not sent any weather packets the latest 10 day(s).

<< 80 81 82 83 84 85 86 >>
Time Temp. Humidity Pressure Rain* Wind** Luminosity Snow
1788047990 33.33° C 37% 1011.4 hPa 0 mm - - -
1788047690 33.33° C 36% 1011.2 hPa 0 mm - - -
1788047389 33.33° C 36% 1011.1 hPa 0 mm - - -
1788047084 33.33° C 36% 1011.2 hPa 0 mm - - -
1788046779 33.33° C 36% 1011.3 hPa 0 mm - - -
1788046478 33.33° C 36% 1011.2 hPa 0 mm - - -
1788046178 33.33° C 36% 1011.3 hPa 0 mm - - -
1788045872 33.33° C 36% 1011.3 hPa 0 mm - - -
1788045567 34.44° C 34% 1011.2 hPa 0 mm - - -
1788045263 33.89° C 34% 1011.3 hPa 0 mm - - -
1788044958 34.44° C 36% 1011.4 hPa 0 mm - - -
1788044656 35° C 33% 1011.2 hPa 0 mm - - -
1788044356 35.56° C 32% 1011.2 hPa 0 mm - - -
1788044060 36.11° C 32% 1011.1 hPa 0 mm - - -
1788043748 36.11° C 31% 1010.7 hPa 0 mm - - -
1788043442 36.67° C 31% 1010.7 hPa 0 mm - - -
1788043142 37.78° C 29% 1010.7 hPa 0 mm - - -
1788042838 37.78° C 27% 1010.6 hPa 0 mm - - -
1788042536 37.78° C 27% 1010.9 hPa 0 mm - - -
1788042232 38.33° C 27% 1010.8 hPa 0 mm - - -
1788041927 38.33° C 28% 1010.9 hPa 0 mm - - -
1788041622 38.33° C 28% 1010.9 hPa 0 mm - - -
1788041322 38.33° C 28% 1010.9 hPa 0 mm - - -
1788041021 38.33° C 27% 1011.2 hPa 0 mm - - -
1788040720 38.89° C 27% 1011.2 hPa 0 mm - - -

* Rain latest hour (hover to see other rain measurements)
** Current wind speed in m/s (hover to see current wind gust speed)